Powrót do katalogu

STARLINK-5198

AktywnyŁącznośćVLEO
NORAD 54099·PAYLOAD·🇺🇸 United States

Wystrzelony Oct 20, 2022 z Cape Canaveral Space Force Station

Loading…

Następne Przeloty (najbliższe 24 godziny)

TLE

ŚwieżeSource: CelesTrak SupGP

Epoka: Sep 14, 2026, 13:42 UTC

1 54099C 22136BA  26257.57131944 -.00022001  00000+0 -13791-2 0  2573
2 54099  53.1591 205.1269 0001428  89.2825 322.2205 15.08861556    19

Śledź STARLINK-5198 w czasie rzeczywistym z AllMySat

Download on the App Store